Fort Nelson, British Columbia

12:51 AM PDT on June 24, 2017 (GMT -0700)
Fort Nelson

Weather History for CYYE - October, 2013

Change the Weather History Date:

Tuesday, October 15, 2013

  Actual Average Record
Temperature  
Mean Temperature 44 °F -  
Max Temperature 52 °F 29 °F 59 °F (2008)
Min Temperature 35 °F 12 °F 19 °F (2016)
Degree Days  
Heating Degree Days 22    
Moisture  
Dew Point 28 °F    
Average Humidity 46    
Maximum Humidity 76    
Minimum Humidity 25    
Precipitation  
Precipitation 0.00 in 0.03 in - ()
Sea Level Pressure  
Sea Level Pressure 30.14 in    
Wind  
Wind Speed 12 mph ()    
Max Wind Speed 25 mph    
Max Gust Speed 44 mph    
Visibility 15.0 miles    
Events      
Averages and records for this station are not official NWS values.
T = Trace of Precipitation, MM = Missing Value Source: Averaged Metar Reports

Daily Weather History Graph

Daily Weather History Graph

Search for Another Location

Airport or City:

Trip Planner

Search our weather history database for the weather conditions in past years. The results will help you decide how hot, cold, wet, or windy it might be!

Date:

Astronomy

Oct. 15, 2013 Rise Set
Actual Time 7:48 AM PDT 6:02 PM PDT
Civil Twilight 7:07 AM PDT 6:43 PM PDT
Nautical Twilight 6:20 AM PDT 7:29 PM PDT
Astronomical Twilight 5:33 AM PDT 8:16 PM PDT
Moon 4:45 PM PDT (10/15) 3:34 AM PDT (10/15)
Length of Visible Light 11h 36m
Length of Day
10h 14m
Waxing Gibbous, 88% of the Moon is Illuminated
Oct 15
Waxing Gibbous
Oct 18
Full
Oct 26
Last Quarter
Nov 3
New
Nov 9
First Quarter

Hourly Weather History & Observations

Time (PDT) Temp. Windchill Dew Point Humidity Pressure Visibility Wind Dir Wind Speed Gust Speed Precip Events Conditions
12:00 AM 42.8 °F 38.0 °F 35.6 °F 76% 29.92 in 15.0 mi NNW 8.1 mph - N/A   Mostly Cloudy
1:00 AM 48.2 °F - 39.2 °F 71% 29.96 in 15.0 mi NW 8.1 mph - N/A   Mostly Cloudy
1:20 AM 50.0 °F - 39.2 °F 66% 29.98 in 15.0 mi WNW 17.3 mph 29.9 mph N/A   Mostly Cloudy
2:00 AM 48.2 °F - 39.2 °F 71% 30.01 in 15.0 mi West 15.0 mph 34.5 mph N/A   Mostly Cloudy
3:00 AM 48.2 °F - 33.8 °F 58% 30.02 in 15.0 mi West 21.9 mph 33.4 mph N/A   Mostly Cloudy
4:00 AM 48.2 °F - 30.2 °F 50% 30.04 in 15.0 mi West 25.3 mph 39.1 mph N/A   Mostly Cloudy
5:00 AM 49 °F - 27 °F 29% 30.07 in 15 mi West 25.3 mph - -   Partly Cloudy
5:00 AM 50.0 °F - 26.6 °F 40% 30.07 in 15.0 mi West 24.2 mph 43.7 mph N/A   Scattered Clouds
6:00 AM 48.2 °F - 28.4 °F 46% 30.10 in 15.0 mi West 20.7 mph 31.1 mph N/A   Scattered Clouds
7:00 AM 48.2 °F - 26.6 °F 43% 30.11 in 15.0 mi West 21.9 mph 36.8 mph N/A   Partly Cloudy
8:00 AM 46.4 °F 41.1 °F 26.6 °F 46% 30.14 in 30.0 mi West 11.5 mph 21.9 mph N/A   Partly Cloudy
9:00 AM 48.2 °F - 26.6 °F 43% 30.16 in 30.0 mi West 17.3 mph 25.3 mph N/A   Scattered Clouds
10:00 AM 48.2 °F - 26.6 °F 43% 30.18 in 30.0 mi West 12.7 mph 23.0 mph N/A   Scattered Clouds
11:00 AM 50 °F - 28 °F 29% 30.19 in 28 mi WNW 12.7 mph - -   Mostly Cloudy
11:00 AM 50.0 °F - 26.6 °F 40% 30.19 in 30.0 mi West 12.7 mph 19.6 mph N/A   Mostly Cloudy
12:00 PM 50.0 °F - 26.6 °F 40% 30.20 in 30.0 mi WNW 11.5 mph 19.6 mph N/A   Mostly Cloudy
1:00 PM 50.0 °F - 26.6 °F 40% 30.20 in 30.0 mi WNW 10.4 mph 18.4 mph N/A   Mostly Cloudy
2:00 PM 51.8 °F - 26.6 °F 38% 30.20 in 30.0 mi WNW 9.2 mph - N/A   Mostly Cloudy
3:00 PM 51.8 °F - 26.6 °F 38% 30.20 in 30.0 mi West 10.4 mph 17.3 mph N/A   Partly Cloudy
4:00 PM 51.8 °F - 26.6 °F 38% 30.22 in 30.0 mi NW 10.4 mph - N/A   Partly Cloudy
5:00 PM 51 °F - 26 °F 25% 30.22 in 28 mi WNW 8.1 mph - -   Scattered Clouds
5:00 PM 51.8 °F - 26.6 °F 38% 30.21 in 30.0 mi WNW 8.1 mph - N/A   Partly Cloudy
6:00 PM 48.2 °F - 24.8 °F 40% 30.22 in 30.0 mi WNW 4.6 mph - N/A   Partly Cloudy
7:00 PM 46.4 °F 45.2 °F 24.8 °F 43% 30.21 in 15.0 mi WNW 3.5 mph - N/A   Partly Cloudy
8:00 PM 46.4 °F 41.1 °F 26.6 °F 46% 30.21 in 15.0 mi WNW 11.5 mph - N/A   Partly Cloudy
9:00 PM 41.0 °F 38.0 °F 24.8 °F 53% 30.21 in 15.0 mi West 4.6 mph - N/A   Partly Cloudy
10:00 PM 44.6 °F 38.8 °F 26.6 °F 49% 30.22 in 15.0 mi West 11.5 mph - N/A   Clear
11:00 PM 42 °F - 25 °F 38% 30.22 in 15 mi West 6.9 mph - -  
11:00 PM 41.0 °F 36.4 °F 24.8 °F 53% 30.22 in 15.0 mi West 6.9 mph - N/A   Clear